Regional Weather Roundup
Issued by NWS

Home | Current Version | Previous Version | Text Only | Print | Product List | Glossary On
Versions: 1 2 3 4 5 6 7 8 9 10 11 12 13 14 15 16 17 18 19 20 21 22 23 24 25 26 27 28 29 30 31 32 33 34 35 36 37 38 39 40 41 42 43 44 45 46 47 48 49 50
000
ASUS43 KLOT 291609
RWRIL

ILLINOIS REGIONAL WEATHER ROUNDUP
NATIONAL WEATHER SERVICE CHICAGO/ROMEOVILLE IL
1100 AM CDT SUN MAY 29 2016

NOTE: "FAIR" INDICATES FEW OR NO CLOUDS BELOW 12,000 FEET WITH NO
SIGNIFICANT WEATHER AND/OR OBSTRUCTIONS TO VISIBILITY.

* THESE STATIONS ARE NOT UNDER NWS QUALITY CONTROL. THEY ALSO MAY NOT
  REPORT WEATHER SUCH AS PRECIPITATION OR FOG.

ILZ001-002-007-009-015-016-024-291700-
NORTHWEST ILLINOIS

CITY           SKY/WX    TMP DP  RH WIND       PRES   REMARKS
MOLINE         MOSUNNY   74  61  63 W12G20    30.05R
STERLING*      CLOUDY    71  62  73 W13       30.04S
SAVANNA*       MOSUNNY   73  60  63 W9        30.03R
$$

ILZ003-004-008-010-011-017-018-291700-
NORTH CENTRAL ILLINOIS

CITY           SKY/WX    TMP DP  RH WIND       PRES   REMARKS
ROCKFORD       PTSUNNY   72  60  66 W14       30.04S
FREEPORT*      PTSUNNY   71  61  72 W14       30.03S
ROCHELLE*      PTSUNNY   69  62  76 W15       30.04S
DE KALB*       CLOUDY    68  61  77 W14       30.05R
$$

ILZ005-006-012>014-019>023-291700-
NORTHEAST ILLINOIS

CITY           SKY/WX    TMP DP  RH WIND       PRES   REMARKS
CHICAGO-OHARE  PTSUNNY   75  59  57 SW20G26   30.00R
CHICAGO-MIDWAY MOSUNNY   79  59  50 SW15G28   30.00R HX  80
AURORA         PTSUNNY   72  64  76 W16G25    30.04R
LANSING*       PTSUNNY   78  58  49 SW20G25   30.02S
JOLIET*        PTSUNNY   78  60  52 W12G18    30.03R HX  80
WAUKEGAN       PTSUNNY   73  59  61 SW16G25   29.99R
DUPAGE AIRPORT PTSUNNY   73  59  61 W17G26    30.02R
KANKAKEE*      MOSUNNY   80  61  53 SW16      30.05S HX  81
WHEELING       PTSUNNY   74  57  55 W15G28    30.01R
MORRIS*        PTSUNNY   75  59  57 W16G23    30.03R
ROMEOVILLE*    PTSUNNY   76  55  48 W18G25    30.03R
NORTHERLY ISL    N/A     77  56  48 S14         N/A
NORTHERLY ISL    N/A     77  56  48 S14         N/A
$$

LMZ740>746-291700-
SOUTHERN LAKE MICHIGAN

STATION/POSITION SKY/WX   TEMP    WIND        PRES    VSBY  WAVE
                          AIR SEA DIR/SP/G                  HT/PER
                          (F)     (DEG/KT/KT) (MB)    (MI)  (FT/S)
SOUTHERN BUOY              54 50  180/ 12/ 12 1015.0R         1/ 3
WILMETTE HARBOR            67 53  260/ 14/ 19   N/A           1/ 2
HARRISON CRIB              75     220/ 19/ 22   N/A
BURNHAM HARBOR             76     200/ 11/ 17   N/A
CALUMET HARBOR             75     200/ 13/ 20 1015.3F
BURNS HARBOR               75     230/ 14/ 21 1016.9R
MICHIGAN CITY              73     200/ 12/ 15   N/A
MICHIGAN CITY 6N           66 58  230/  8/ 12   N/A           1
ST. JOSEPH                 66 62  230/  6/  8   N/A           1/ 2
$$

ILZ025>027-034>036-040-047-049-050-058-095>099-291700-
WEST-CENTRAL ILLINOIS

CITY           SKY/WX    TMP DP  RH WIND       PRES   REMARKS
QUINCY         SUNNY     76  59  55 NW6       30.09S
GALESBURG*     PTSUNNY   73  62  66 W10       30.08R
MACOMB*        SUNNY     74  60  61 W9        30.10S
JACKSONVILLE*  SUNNY     80  61  52 W10       30.09R HX  81
PITTSFIELD*    SUNNY     77  62  59 W9        30.11R
$$

ILZ028>032-037-038-041>044-048-051>054-059>061-291700-
CENTRAL ILLINOIS

CITY           SKY/WX    TMP DP  RH WIND       PRES   REMARKS
PONTIAC        MOSUNNY   77  62  59 SW15G22   30.06R
BLOOMINGTON    SUNNY     76  63  64 W15       30.08S
DECATUR        SUNNY     81  61  50 W12       30.08S HX  82
PEORIA         SUNNY     77  59  53 NW10      30.06S
LACON*         SUNNY     75  58  56 W14       30.05S
LINCOLN*       SUNNY     78  63  58 W6        30.07S HX  80
SPRINGFIELD    SUNNY     82  60  47 W13       30.08S HX  82
TAYLORVILLE    MOSUNNY   79  59  50 W12       30.09S HX  80
$$

ILZ033-039-045-046-055>057-062-063-291700-
EAST-CENTRAL ILLINOIS

CITY           SKY/WX    TMP DP  RH WIND       PRES   REMARKS
CHAMPAIGN      SUNNY     81  58  45 W13       30.08S HX  81
RANTOUL*       MOSUNNY   81  62  53 SW14      30.07S HX  82
MATTOON        MOSUNNY   78  62  57 SW8       30.08F HX  80
PARIS*         PTSUNNY   81  65  58 SW5       30.09S HX  82
$$

ILZ079-100>102-291700-
SOUTHWEST ILLINOIS

CITY           SKY/WX    TMP DP  RH WIND       PRES   REMARKS
ALTON          MOSUNNY   79  63  57 W8        30.10S HX  80
BELLEVILLE     SUNNY     81  62  51 NW5       30.09S HX  82
CAHOKIA*       SUNNY     82  59  45 NW9       30.10R HX  82
SPARTA*        SUNNY     79  66  64 W6        30.11S HX  81
$$

ILZ064>066-069>071-074>076-080>082-084>086-088>090-092>094-291700-
SOUTH-CENTRAL ILLINOIS

CITY           SKY/WX    TMP DP  RH WIND       PRES   REMARKS
CARBONDALE     MOSUNNY   81  65  58 NW3       30.11R HX  83
CAIRO*         MOSUNNY   77  71  80 W6        30.11S
EFFINGHAM*     MOSUNNY   80  66  61 W8        30.11S HX  82
MARION         PTSUNNY   81  68  65 SW6       30.11S HX  83
MT. VERNON     PTSUNNY   81  66  61 CALM      30.11R HX  83
CENTRALIA*     SUNNY     81  67  61 CALM      30.09S HX  83
SALEM*         PTSUNNY   81  65  58 NW7       30.10S HX  83
METROPOLIS*    SUNNY     80  72  77 SW3       30.11S HX  84
$$

ILZ067-068-072-073-078-083-087-091-291700-
SOUTHEAST ILLINOIS

CITY           SKY/WX    TMP DP  RH WIND       PRES   REMARKS
LAWRENCEVILLE  MOSUNNY   80  68  66 SW6       30.09S HX  83
FLORA*         PTSUNNY   81  70  68 NW5       30.10R HX  84
FAIRFIELD*     MOSUNNY   79  70  74 SW3       30.09S HX  82
HARRISBURG*    PTSUNNY   80  72  76 CALM      30.10S HX  83
ROBINSON*      PTSUNNY   80  66  62 SW6       30.09S HX  82
CARMI*         MOSUNNY   79  71  75 S5        30.09S HX  81
$$

ABBREVIATIONS USED IN REMARKS
   TC - TEMPERATURE IN CELSIUS
  WCI - WIND CHILL INDEX
   HX - HEAT INDEX
  VSB - VISIBILITY
$$





USA.gov is the U.S. government's official web portal to all federal, state and local government web resources and services.